User: anonymous   Login
Location: Unspecified
(0.0000°N, 0.0000°E)
Time: 08:55:21
(UTC+02:00)
Language:

Cosmos 1125 Rocket - Orbit

View from above orbital plane
View from above orbital plane
View from above satellite
View from above satellite

Ground track
Ground track

The orbit data is extracted from the following two-line orbital elements,

1 11511U 79078B   17176.51944612 +.00000039 +00000-0 +21963-4 0  9991
2 11511 074.0374 299.9844 0015614 185.5455 174.5528 14.36773977979811
Epoch (UTC): 25 June 2017 12:28:00
Eccentricity: 0.0015614
inclination: 74.0374°
perigee height: 758 km
apogee height: 780 km
right ascension of ascending node: 299.9844°
argument of perigee: 185.5455°
revolutions per day: 14.36773977
mean anomaly at epoch: 174.5528°
orbit number at epoch: 97981

The dashed part of the orbit path shows where the satellite is in the earth's shadow,  

DLR